This is the latest recevied weather packets stored in our database for station/object E25HML-13. If no packets are shown the sender has not sent any weather packets the latest 10 day(s).
| Time | Temp. | Humidity | Pressure | Rain* | Wind** | Luminosity | Snow |
|---|---|---|---|---|---|---|---|
| 1777776807 | 33.33° C | 67% | 1008.1 hPa | - | - | - | - |
| 1777776507 | 32.78° C | 68% | 1008.2 hPa | - | - | - | - |
| 1777776206 | 33.33° C | 68% | 1008.3 hPa | - | - | - | - |
| 1777775907 | 32.78° C | 68% | 1008.2 hPa | - | - | - | - |
| 1777775607 | 32.78° C | 68% | 1008.1 hPa | - | - | - | - |
| 1777775307 | 32.78° C | 69% | 1008.2 hPa | - | - | - | - |
| 1777775007 | 32.78° C | 69% | 1008.1 hPa | - | - | - | - |
| 1777774707 | 32.78° C | 68% | 1008.1 hPa | - | - | - | - |
| 1777774407 | 32.78° C | 69% | 1008.1 hPa | - | - | - | - |
| 1777774107 | 32.78° C | 68% | 1008 hPa | - | - | - | - |
| 1777773807 | 32.78° C | 69% | 1008 hPa | - | - | - | - |
| 1777773508 | 32.78° C | 68% | 1008.1 hPa | - | - | - | - |
| 1777773207 | 32.78° C | 67% | 1008.1 hPa | - | - | - | - |
| 1777772907 | 32.78° C | 67% | 1008 hPa | - | - | - | - |
| 1777772607 | 33.33° C | 65% | 1008 hPa | - | - | - | - |
| 1777772307 | 35.56° C | 58% | 1007.8 hPa | - | - | - | - |
| 1777772007 | 35.56° C | 57% | 1007.9 hPa | - | - | - | - |
| 1777771707 | 35.56° C | 57% | 1007.9 hPa | - | - | - | - |
| 1777771408 | 35° C | 57% | 1007.9 hPa | - | - | - | - |
| 1777771108 | 35° C | 57% | 1007.9 hPa | - | - | - | - |
| 1777770807 | 34.44° C | 59% | 1007.8 hPa | - | - | - | - |
| 1777770507 | 34.44° C | 59% | 1007.8 hPa | - | - | - | - |
| 1777770207 | 33.89° C | 61% | 1007.8 hPa | - | - | - | - |
| 1777769907 | 33.89° C | 61% | 1007.6 hPa | - | - | - | - |
| 1777769607 | 33.33° C | 62% | 1007.6 hPa | - | - | - | - |
* Rain since midnight (hover to see other rain measurements)
** Current wind speed in m/s (hover to see current wind gust speed)